Location: Newark
(50.7115°N, 3.8495°W)
Time: 03:40:05
(UTC+00:00)

OTV 5 (USA 277) - Visible Passes

Search period start: 23 October 2019 00:00
Search period end: 02 November 2019 00:00
Orbit: 310 x 324 km, 54.5° (Epoch: 17 October)

Date Brightness Start Highest point End Pass type
(mag) Time Alt. Az. Time Alt. Az. Time Alt. Az.
29 Oct ? 18:52:18 10° SSW 18:53:10 16° S 18:53:10 16° S visible
30 Oct ? 19:06:25 10° SW 19:07:33 22° SW 19:07:33 22° SW visible
31 Oct ? 17:47:35 10° S 17:49:36 18° SE 17:50:56 14° ESE visible
31 Oct ? 19:20:54 10° WSW 19:21:50 19° WSW 19:21:50 19° WSW visible
01 Nov ? 18:01:24 10° SW 18:03:58 38° SE 18:05:08 24° E visible
01 Nov ? 19:35:35 10° W 19:36:01 13° W 19:36:01 13° W visible
